Location: McFarlands Corners
(41.4117°N, 81.3382°W)
Time: 18:12:20
(UTC+00:00)

Vanguard 1 Rocket - Pass Details

Date: 25 February 2026
Orbit: 653 x 4214 km, 34.3° (Epoch: 8 March)

Event Time Altitude Azimuth Distance (km) Brightness Sun altitude
Rises 17:37:51 0° 244° (WSW) 3,536 10.7 39.7°
Reaches altitude 10° 17:39:58 10° 239° (WSW) 2,821 10.4 39.7°
Maximum altitude 17:46:34 52° 164° (SSE) 1,796 10.7 39.7°
Drops below altitude 10° 17:59:06 10° 94° (E) 5,194 11.3 39.5°
Sets 18:04:32 0° 90° (E) 6,798 11.8 39.3°
